GW6710 Weather Reports


Display with metric or nautical units.
time (UTC)temp
F
wind
direction
speed
MPH
gust
MPH
rain 1hr
in
rain 24hr
in
rain mn
in
humidity
%
barometer
mb
20260504044536 55 40 8.0 13.0 0.00 0.01 0.00 39 1008.0
20260504043037 56 360 11.0 14.0 0.00 0.01 0.00 38 1007.8
20260504041542 57 360 12.0 16.0 0.00 0.01 0.00 36 1007.5
20260504040041 59 360 15.0 20.0 0.00 0.01 0.00 33 1007.3
20260504034547 59 360 14.0 17.0 0.00 0.01 0.00 31 1007.0
20260504033039 60 31 13.0 16.0 0.00 0.01 0.00 28 1006.7
20260504031542 63 360 10.0 15.0 0.00 0.01 0.00 25 1006.6
20260504030038 65 13 11.0 14.0 0.00 0.01 0.00 24 1006.4
20260504024540 63 26 9.0 12.0 0.00 0.01 0.00 26 1006.2
20260504023036 64 30 6.0 11.0 0.00 0.01 0.00 26 1006.3
20260504021541 66 26 8.0 11.0 0.00 0.01 0.00 24 1006.4
20260504020042 69 360 9.0 13.0 0.00 0.01 0.00 22 1006.2
20260504014540 71 360 12.0 15.0 0.00 0.01 0.00 21 1006.1
20260504013053 72 15 10.0 16.0 0.00 0.01 0.00 19 1006.1
20260504011542 74 338 7.0 13.0 0.00 0.01 0.00 18 1006.3
20260504010041 74 360 13.0 19.0 0.00 0.01 0.00 17 1006.2
20260504004540 75 360 12.0 21.0 0.00 0.01 0.00 17 1006.5
20260504003039 74 360 14.0 27.0 0.00 0.01 0.00 17 1006.6
20260504001540 74 360 18.0 28.0 0.00 0.01 0.00 17 1007.0
20260504000039 74 360 16.0 23.0 0.00 0.01 0.00 17 1006.9
20260503234541 74 360 15.0 24.0 0.00 0.01 0.00 17 1007.0
20260503233040 74 360 19.0 28.0 0.00 0.01 0.00 17 1007.1
20260503231538 74 360 8.0 33.0 0.00 0.01 0.00 17 1007.2
20260503230041 74 360 14.0 28.0 0.00 0.01 0.00 17 1007.4
20260503224534 74 360 17.0 23.0 0.00 0.01 0.00 17 1007.6
20260503223042 73 360 21.0 28.0 0.00 0.01 0.00 17 1007.6
20260503221551 73 360 21.0 29.0 0.00 0.01 0.00 16 1007.7
20260503220040 72 360 11.0 27.0 0.00 0.01 0.00 18 1007.8
20260503214541 73 360 20.0 27.0 0.00 0.01 0.00 18 1008.0
20260503213043 73 360 16.0 31.0 0.00 0.01 0.00 17 1008.3
20260503211535 72 360 16.0 27.0 0.00 0.01 0.00 18 1008.5
20260503210114 73 360 10.0 27.0 0.00 0.01 0.00 18 1008.6
20260503204541 72 360 18.0 33.0 0.00 0.01 0.00 19 1009.0
20260503203041 72 360 16.0 22.0 0.00 0.01 0.00 19 1009.0
20260503201537 71 360 19.0 36.0 0.00 0.01 0.00 21 1009.3
20260503200044 72 360 17.0 26.0 0.00 0.01 0.00 21 1009.4
20260503194543 71 360 13.0 19.0 0.00 0.01 0.00 22 1009.8
20260503193046 71 360 14.0 27.0 0.00 0.01 0.00 22 1010.1
20260503191603 70 360 17.0 25.0 0.00 0.01 0.00 22 1010.3
20260503190036 70 360 16.0 28.0 0.00 0.01 0.00 23 1010.6
20260503184537 69 360 15.0 22.0 0.00 0.01 0.00 23 1011.0
20260503183040 69 360 13.0 25.0 0.00 0.01 0.00 25 1011.2
20260503181546 69 360 16.0 24.0 0.00 0.01 0.00 26 1011.4
20260503180041 67 360 17.0 25.0 0.00 0.01 0.00 26 1011.5
20260503174545 67 360 18.0 23.0 0.00 0.01 0.00 28 1011.6
20260503173041 68 360 9.0 19.0 0.00 0.01 0.00 31 1011.7
20260503171539 67 360 10.0 18.0 0.00 0.01 0.00 32 1011.8
20260503081543 50 246 4.0 8.0 0.00 0.01 0.00 67 1014.3
20260503071537 54 299 3.0 5.0 0.00 0.01 0.00 57 1014.5